TimePST,TemperatureF,Dew PointF,Humidity,Sea Level PressureIn,VisibilityMPH,Wind Direction,Wind SpeedMPH,Gust SpeedMPH,PrecipitationIn,Events,Conditions,WindDirDegrees,DateUTC
12:54 AM,48.9,46.9,93,30.03,-9999.0,North,-9999.0,-,N/A,,Clear,0,2014-02-14 08:54:00
1:54 AM,50.0,48.0,93,30.02,-9999.0,North,-9999.0,-,N/A,,Clear,0,2014-02-14 09:54:00
2:54 AM,50.0,46.9,89,30.02,-9999.0,North,-9999.0,-,N/A,,Clear,0,2014-02-14 10:54:00
3:02 AM,50.0,46.9,89,30.01,-9999.0,North,-9999.0,-,N/A,,Partly Cloudy,0,2014-02-14 11:02:00
3:28 AM,51.1,48.0,89,30.02,-9999.0,North,-9999.0,-,N/A,,Mostly Cloudy,0,2014-02-14 11:28:00
3:54 AM,52.0,48.9,89,30.02,-9999.0,North,-9999.0,-,N/A,,Overcast,0,2014-02-14 11:54:00
4:25 AM,52.0,48.9,89,30.01,-9999.0,North,-9999.0,-,N/A,,Overcast,0,2014-02-14 12:25:00
4:54 AM,53.1,51.1,93,30.02,-9999.0,North,-9999.0,-,N/A,,Overcast,0,2014-02-14 12:54:00
5:49 AM,46.4,42.8,87,30.03,-9999.0,North,-9999.0,-,N/A,,Scattered Clouds,0,2014-02-14 13:49:00
5:54 AM,45.0,41.0,86,30.03,-9999.0,North,-9999.0,-,N/A,,Partly Cloudy,0,2014-02-14 13:54:00
6:19 AM,46.0,42.1,86,30.02,7.0,NNE,5.8,-,N/A,,Partly Cloudy,30,2014-02-14 14:19:00
6:54 AM,45.0,39.9,82,30.04,7.0,NE,3.5,-,N/A,,Scattered Clouds,50,2014-02-14 14:54:00
7:54 AM,52.0,45.0,77,30.04,7.0,Calm,Calm,-,N/A,,Scattered Clouds,0,2014-02-14 15:54:00
8:54 AM,59.0,48.9,69,30.06,7.0,NNW,3.5,-,N/A,,Partly Cloudy,340,2014-02-14 16:54:00
9:54 AM,64.9,48.9,56,30.06,7.0,North,4.6,-,N/A,,Clear,350,2014-02-14 17:54:00
10:54 AM,69.1,55.0,61,30.06,7.0,WNW,6.9,-,N/A,,Scattered Clouds,300,2014-02-14 18:54:00
11:54 AM,71.1,55.0,57,30.03,7.0,WNW,5.8,-,N/A,,Clear,290,2014-02-14 19:54:00
12:54 PM,70.0,54.0,57,30.01,7.0,West,10.4,-,N/A,,Partly Cloudy,260,2014-02-14 20:54:00
1:54 PM,69.1,53.1,57,29.99,7.0,West,8.1,-,N/A,,Scattered Clouds,270,2014-02-14 21:54:00
2:54 PM,69.1,55.0,61,29.98,7.0,West,10.4,-,N/A,,Scattered Clouds,260,2014-02-14 22:54:00
3:54 PM,66.9,55.0,66,29.96,7.0,West,6.9,-,N/A,,Partly Cloudy,260,2014-02-14 23:54:00
4:54 PM,64.9,54.0,68,29.96,7.0,West,6.9,-,N/A,,Clear,280,2014-02-15 00:54:00
5:54 PM,60.1,53.1,78,29.96,7.0,West,4.6,-,N/A,,Clear,280,2014-02-15 01:54:00
6:54 PM,59.0,54.0,83,29.96,7.0,West,4.6,-,N/A,,Clear,280,2014-02-15 02:54:00
7:54 PM,57.9,54.0,87,29.97,7.0,WNW,6.9,-,N/A,,Clear,300,2014-02-15 03:54:00
8:54 PM,55.9,51.1,84,29.99,7.0,Calm,Calm,-,N/A,,Clear,0,2014-02-15 04:54:00
9:54 PM,55.0,52.0,89,29.99,7.0,Calm,Calm,-,N/A,,Clear,0,2014-02-15 05:54:00
10:54 PM,55.0,52.0,89,29.99,7.0,Calm,Calm,-,N/A,,Clear,0,2014-02-15 06:54:00
11:54 PM,53.1,50.0,89,29.99,-9999.0,North,-9999.0,-,N/A,,Clear,0,2014-02-15 07:54:00